Weather History for Reading, PA

Change the Weather History Date:

Monday, July 15, 2013

  Actual Average Record
Temperature  
Mean Temperature 84 °F 75 °F  
Max Temperature 95 °F 86 °F 99 °F (1995)
Min Temperature 72 °F 65 °F 54 °F (1971)
Degree Days  
Heating Degree Days 0 0  
Month to date heating degree days 0 0  
Since 1 June heating degree days 2 24  
Since 1 July heating degree days 0 0  
Cooling Degree Days 19 10  
Month to date cooling degree days 221 147  
Year to date cooling degree days 561 396  
Since 1 June cooling degree days 462 336  
Growing Degree Days 33 (Base 50)    
Moisture  
Dew Point 72 °F    
Average Humidity 70    
Maximum Humidity 93    
Minimum Humidity 46    
Precipitation  
Precipitation T in 0.15 in 3.30 in (1994)
Month to date precipitation 2.55 2.14  
Year to date precipitation 21.80 22.94  
Sea Level Pressure  
Sea Level Pressure 30.24 in    
Wind  
Wind Speed 3 mph (WNW)    
Max Wind Speed 14 mph    
Max Gust Speed 18 mph    
Visibility 10 miles    
Events Rain    
T = Trace of Precipitation, MM = Missing Value Source: NWS Daily Summary

Daily Weather History Graph

Daily Weather History Graph

Search for Another Location

Airport:

Trip Planner

Search our weather history database for the weather conditions in past years. The results will help you decide how hot, cold, wet, or windy it might be!

Date:

Astronomy

Jul. 15, 2013 Rise Set
Actual Time 5:46 AM EDT 8:32 PM EDT
Civil Twilight 5:14 AM EDT 9:04 PM EDT
Nautical Twilight 4:34 AM EDT 9:44 PM EDT
Astronomical Twilight 3:48 AM EDT 10:30 PM EDT
Moon 1:05 PM EDT (7/15) No Moon Set
Length of Visible Light 15h 49m
Length of Day
14h 45m
Waxing Crescent, 45% of the Moon is Illuminated
Jul 15
Waxing Crescent
Jul 15
First Quarter
Jul 22
Full
Jul 29
Last Quarter
Aug 6
New

Hourly Weather History & Observations

Time (EDT) Temp. Heat Index Dew Point Humidity Pressure Visibility Wind Dir Wind Speed Gust Speed Precip Events Conditions
12:54 AM 78.1 °F - 71.1 °F 79% 30.28 in 10.0 mi NW 3.5 mph - N/A   Clear
1:54 AM 75.0 °F - 71.1 °F 87% 30.28 in 10.0 mi Calm Calm - N/A   Clear
2:54 AM 75.9 °F - 71.1 °F 85% 30.28 in 10.0 mi Calm Calm - N/A   Clear
3:54 AM 73.9 °F - 72.0 °F 93% 30.28 in 10.0 mi Calm Calm - N/A   Clear
4:54 AM 73.0 °F - 71.1 °F 93% 30.28 in 10.0 mi Calm Calm - N/A   Clear
5:54 AM 73.9 °F - 71.1 °F 91% 30.28 in 10.0 mi Calm Calm - N/A   Clear
6:54 AM 75.9 °F - 72.0 °F 87% 30.29 in 8.0 mi Calm Calm - N/A   Clear
7:54 AM 79.0 °F - 72.0 °F 79% 30.30 in 10.0 mi Calm Calm - N/A   Clear
8:54 AM 82.0 °F 87.4 °F 73.0 °F 74% 30.29 in 10.0 mi WSW 3.5 mph - N/A   Clear
9:54 AM 84.9 °F 90.7 °F 72.0 °F 65% 30.28 in 10.0 mi West 3.5 mph - N/A   Clear
10:54 AM 87.1 °F 94.5 °F 73.0 °F 63% 30.27 in 10.0 mi WNW 3.5 mph - N/A   Clear
11:54 AM 90.0 °F 99.0 °F 73.9 °F 59% 30.26 in 10.0 mi Variable 5.8 mph - N/A   Partly Cloudy
12:54 PM 91.0 °F 99.3 °F 73.0 °F 55% 30.25 in 10.0 mi WNW 9.2 mph - N/A   Scattered Clouds
1:54 PM 91.9 °F 97.4 °F 70.0 °F 48% 30.23 in 10.0 mi West 5.8 mph - N/A   Scattered Clouds
2:54 PM 93.9 °F 100.3 °F 70.0 °F 46% 30.22 in 10.0 mi WNW 8.1 mph - N/A   Partly Cloudy
3:54 PM 93.9 °F 99.1 °F 69.1 °F 44% 30.20 in 10.0 mi NW 6.9 mph - N/A   Partly Cloudy
4:54 PM 93.9 °F 102.1 °F 72.0 °F 49% 30.20 in 10.0 mi West 8.1 mph - N/A   Scattered Clouds
5:54 PM 86.0 °F 93.8 °F 73.9 °F 67% 30.19 in 10.0 mi NNW 15.0 mph 18.4 mph 0.00 in Rain Light Rain
6:54 PM 81.0 °F 85.8 °F 73.0 °F 77% 30.19 in 10.0 mi South 4.6 mph - 0.00 in   Clear
7:54 PM 82.9 °F 88.8 °F 73.0 °F 72% 30.19 in 10.0 mi Calm Calm - N/A   Clear
8:54 PM 79.0 °F - 73.9 °F 84% 30.18 in 10.0 mi Calm Calm - N/A   Clear
9:54 PM 80.1 °F 85.1 °F 75.0 °F 85% 30.19 in 10.0 mi Calm Calm - N/A   Clear
10:54 PM 78.1 °F - 75.0 °F 90% 30.20 in 10.0 mi Calm Calm - N/A   Partly Cloudy
11:54 PM 78.1 °F - 75.0 °F 90% 30.21 in 9.0 mi Calm Calm - N/A   Partly Cloudy